Retour au catalogue

CZ-6A DEB

ActifSSO
NORAD 54898·DEBRIS·🇨🇳 China

Lancé Nov 11, 2022 depuis Taiyuan Satellite Launch Center

Loading…

Prochains Passages (prochaines 24 heures)

TLE

FraisSource: Space-Track

Époque: Sep 13, 2026, 21:14 UTC

1 54898U 22151QK  26256.88494416  .00000526  00000-0  33257-3 0  9996
2 54898  98.8597 243.6819 0080708 138.8150 221.9147 14.06713936194116

Suivez CZ-6A DEB en temps réel avec AllMySat

Download on the App Store